Regional Weather Roundup
Issued by NWS

Home | Current Version | Previous Version | Text Only | Print | Product List | Glossary Off
Versions: 1 2 3 4 5 6 7 8 9 10 11 12 13 14 15 16 17 18 19 20 21 22 23 24 25 26 27 28 29 30 31 32 33 34 35 36 37 38 39 40 41 42 43 44 45 46 47 48 49 50

000
ASUS43 KFSD 251110
RWRSD

WEATHER ROUNDUP FOR SOUTH DAKOTA
NATIONAL WEATHER SERVICE SIOUX FALLS SD
600 AM CDT MON JUL 25 2016

NOTE: "FAIR" INDICATES FEW OR NO CLOUDS BELOW 12,000 FEET WITH NO
SIGNIFICANT WEATHER AND/OR OBSTRUCTIONS TO VISIBILITY.


SDZ001>005-009-010-012>017-251200-
NORTHWEST AND NORTH CENTRAL SOUTH DAKOTA

CITY           SKY/WX    TMP DP  RH WIND       PRES   REMARKS
BUFFALO          N/A     63  50  62 SE7       29.97S
FAITH            N/A     62  51  67 S16       30.03S
MOBRIDGE       CLEAR     67  58  72 SE9       30.01F
$$

SDZ012>016-024>037-041>051-057-063-072>074-251200-
SOUTHWEST AND SOUTH CENTRAL SOUTH DAKOTA

CITY           SKY/WX    TMP DP  RH WIND       PRES   REMARKS
RAPID CTY ARPT CLEAR     65  55  70 SE12      30.08S
PIERRE         PTCLDY    69  55  60 S6        30.05R
CUSTER         CLEAR     55  49  80 CALM      30.22F
ELLSWORTH AFB  CLEAR     67  56  68 S12       30.06S
PHILIP         CLEAR     58  53  84 SE5       30.06S
PINE RIDGE     CLEAR     63  59  87 S3        30.14S
WINNER         FAIR      66  53  63 SW6       30.10R
$$

SDZ004>011-016>023-039-040-251200-
NORTHEAST SOUTH DAKOTA

CITY           SKY/WX    TMP DP  RH WIND       PRES   REMARKS
ABERDEEN       CLEAR     56  54  93 S6        30.05R
WATERTOWN      CLEAR     61  57  87 CALM      30.08R
BROOKINGS      CLEAR     60  58  92 SW3       30.09R
SISSETON         N/A     57  55  93 CALM      30.03S
$$

SDZ017-020-022-023-036>040-048>070-251200-
SOUTHEAST SOUTH DAKOTA

CITY           SKY/WX    TMP DP  RH WIND       PRES   REMARKS
SIOUX FALLS    PTCLDY    59  57  93 CALM      30.09R
HURON          CLEAR     60  58  92 SE3       30.06R
CHAMBERLAIN    CLEAR     60  59  95 CALM      30.09R
MITCHELL       CLEAR     61  59  93 CALM      30.08R
YANKTON        CLEAR     59  55  88 CALM      30.09R
$$

ABBREVIATIONS USED IN REMARKS
   TC - TEMPERATURE IN CELSIUS
  WCI - WIND CHILL INDEX
   HX - HEAT INDEX
  VSB - VISIBILITY





USA.gov is the U.S. government's official web portal to all federal, state and local government web resources and services.